Weather History for Jackson Hawkins Field, MS

Change the Weather History Date:

Sunday, February 17, 2013

  Actual Average (KJAN) Record (KJAN)
Temperature  
Mean Temperature 46 °F 50 °F  
Max Temperature 61 °F 61 °F 81 °F (1927)
Min Temperature 30 °F 39 °F 15 °F (1900)
Degree Days  
Heating Degree Days 20 15  
Month to date heating degree days 287  
Since 1 July heating degree days 1839  
Cooling Degree Days 0 0  
Month to date cooling degree days 0  
Year to date cooling degree days 4  
Moisture  
Dew Point 26 °F    
Average Humidity 51    
Maximum Humidity 79    
Minimum Humidity 27    
Precipitation  
Precipitation 0.00 in 0.17 in 1.48 in (1921)
Month to date precipitation 2.93  
Year to date precipitation 7.90  
Sea Level Pressure  
Sea Level Pressure 30.24 in    
Wind  
Wind Speed 5 mph (SSE)    
Max Wind Speed 12 mph    
Max Gust Speed 21 mph    
Visibility 10 miles    
Events      
T = Trace of Precipitation, MM = Missing Value Source: NWS Daily Summary

Daily Weather History Graph

Daily Weather History Graph

Search for Another Location

Airport:

Trip Planner

Search our weather history database for the weather conditions in past years. The results will help you decide how hot, cold, wet, or windy it might be!

Date:

Astronomy

Feb. 17, 2013 Rise Set
Actual Time 6:41 AM CST 5:48 PM CST
Civil Twilight 6:16 AM CST 6:13 PM CST
Nautical Twilight 5:47 AM CST 6:42 PM CST
Astronomical Twilight 5:19 AM CST 7:11 PM CST
Moon 11:01 AM CST (2/17) 12:18 AM CST (2/17)
Length of Visible Light 11h 57m
Length of Day
11h 07m
Waxing Crescent, 49% of the Moon is Illuminated
Feb 17
Waxing Crescent
Feb 17
First Quarter
Feb 25
Full
Mar 4
Last Quarter
Mar 11
New

Hourly Weather History & Observations

Time (CST) Temp. Windchill Dew Point Humidity Pressure Visibility Wind Dir Wind Speed Gust Speed Precip Events Conditions
12:53 AM 32.0 °F - 24.1 °F 73% 30.29 in 10.0 mi Calm Calm - N/A   Clear
1:53 AM 30.9 °F - 24.1 °F 76% 30.29 in 10.0 mi Calm Calm - N/A   Clear
2:53 AM 30.0 °F - 24.1 °F 79% 30.27 in 10.0 mi Calm Calm - N/A   Partly Cloudy
3:53 AM 30.0 °F 25.2 °F 24.1 °F 79% 30.27 in 10.0 mi SSE 4.6 mph - N/A   Mostly Cloudy
4:53 AM 30.9 °F 23.5 °F 23.0 °F 72% 30.28 in 10.0 mi SE 8.1 mph - N/A   Scattered Clouds
5:53 AM 30.9 °F 26.2 °F 23.0 °F 72% 30.30 in 10.0 mi SE 4.6 mph - N/A   Overcast
7:53 AM 34.0 °F 27.2 °F 24.1 °F 67% 30.32 in 10.0 mi SSE 8.1 mph - N/A   Overcast
8:53 AM 39.0 °F 34.0 °F 21.9 °F 50% 30.33 in 10.0 mi SSE 6.9 mph - N/A   Clear
9:53 AM 45.0 °F 41.2 °F 21.0 °F 39% 30.32 in 10.0 mi SE 6.9 mph - N/A   Clear
10:53 AM 48.9 °F - 21.0 °F 33% 30.31 in 10.0 mi SE 9.2 mph - N/A   Clear
11:53 AM 52.0 °F - 21.9 °F 31% 30.28 in 10.0 mi SSW 10.4 mph - N/A   Clear
12:53 PM 55.0 °F - 25.0 °F 31% 30.24 in 10.0 mi SSE 10.4 mph 17.3 mph N/A   Clear
1:53 PM 60.1 °F - 27.0 °F 28% 30.21 in 10.0 mi SSW 8.1 mph - N/A   Clear
2:53 PM 61.0 °F - 27.0 °F 27% 30.18 in 10.0 mi South 11.5 mph 17.3 mph N/A   Clear
3:53 PM 61.0 °F - 28.0 °F 29% 30.16 in 10.0 mi South 11.5 mph - N/A   Clear
4:53 PM 59.0 °F - 28.9 °F 32% 30.16 in 10.0 mi South 9.2 mph 20.7 mph N/A   Clear
5:53 PM 54.0 °F - 30.0 °F 40% 30.16 in 10.0 mi South 8.1 mph - N/A   Clear
6:53 PM 51.1 °F - 30.9 °F 46% 30.17 in 10.0 mi South 6.9 mph - N/A   Clear
7:53 PM 50.0 °F - 32.0 °F 50% 30.17 in 10.0 mi South 9.2 mph - N/A   Clear
8:53 PM 51.1 °F - 33.1 °F 50% 30.18 in 10.0 mi South 11.5 mph - N/A   Clear
9:53 PM 48.9 °F - 33.1 °F 54% 30.19 in 10.0 mi South 9.2 mph - N/A   Clear
11:53 PM 46.9 °F - 35.1 °F 63% 30.18 in 10.0 mi South 11.5 mph - N/A   Clear